Content
SEND FEEDBACK

Daily
Averages
Monthly
Summary
United States of America

TAMUNING, GUAM


Home > North America > United States > Guam
Elevation: 76 meters     Latitude: 13 29N     Longitude: 144 47E

WEATHER
 
SELECT A DAY
Number of Records: 356,513;   Date Range: 1/1/95 - 12/18/14
 
SHARE

PRINT THIS DATA

[ ← Previous Day ]
WEATHER ALMANAC - 22 NOVEMBER, 2013
[ Next Day → ]
[ °F ]   °C
Weather ElementAverageHighLow
Temperature27.3 °C29.3 °C (11:58 am)25 °C (2:08 am)
Dewpoint24.4 °C26 °C (12:50 pm)22 °C (2:23 am)
Humidity84.6 %100 % (9:43 pm)74 % (10:33 am)
Barometer1011.2 hPa1012.9 hPa (9:03 am)1008.8 hPa (1:58 pm)
Wind Speed27 km/h33.3 km/h (1:58 am)
Wind Gust48.1 km/h (2:08 am)
Weather ElementAverage
Visibility16.1 km
Wind DirectionENE (58 °)

Weather ElementTotal
Precipitation0.25 mm
Cooling Degree Days8.8 (Base 18.3)
Growing Degree Days17.2 (Base 10)
Averaged from 80 records on 22 November, 2013
WEATHER CONDITIONS BREAKOUT
WIND DIRECTION BREAKOUT
WEATHER BY HOUR - 22 NOVEMBER, 2013
[ °F ]   °C
Local TimeTemperatureDewpointHumidityBarometerVisibilityWind DirectionWind SpeedGust SpeedPrecipitationEventsConditions
1:45 AM26 °C24 °C89 %1011.5 hPa16.1 kmNE (50°)29.6 km/h40.7 km/hRainLight Rain
1:54 AM26 °C24 °C89 %1011.5 hPa16.1 kmENE (60°)20.4 km/h40.7 km/hMostly Cloudy
1:58 AM25.7 °C24.3 °C92 %1010.5 hPa16.1 kmNE (50°)33.3 km/h44.4 km/h0 mmMostly Cloudy
2:08 AM25 °C23 °C89 %1011.5 hPa16.1 kmENE (60°)33.3 km/h48.1 km/hMostly Cloudy
2:13 AM25 °C23 °C89 %1011.5 hPa16.1 kmNE (50°)31.5 km/h46.3 km/hRainLight Rain
2:18 AM25 °C23 °C89 %1011.5 hPa16.1 kmENE (60°)27.8 km/hLight Drizzle
2:23 AM25 °C22 °C83 %1011.5 hPa16.1 kmENE (60°)25.9 km/hMostly Cloudy
2:26 AM25 °C22 °C83 %1011.2 hPa16.1 kmENE (60°)20.4 km/hLight Drizzle
2:35 AM25 °C22 °C83 %1011.2 hPa16.1 kmENE (60°)16.7 km/hMostly Cloudy
2:58 AM25.8 °C24.2 °C91 %1009.8 hPa16.1 kmNE (50°)27.8 km/h31.5 km/h0.25 mmMostly Cloudy
3:58 AM25.9 °C23.1 °C84 %1009.8 hPa16.1 kmENE (60°)24.1 km/hClear
4:58 AM25.9 °C22.9 °C83 %1009.8 hPa16.1 kmENE (70°)25.9 km/h35.2 km/hClear
5:58 AM26 °C23.5 °C86 %1010.2 hPa16.1 kmENE (60°)20.4 km/hPartly Cloudy
6:58 AM26.4 °C24.1 °C87 %1011.2 hPa16.1 kmENE (60°)25.9 km/hPartly Cloudy
7:33 AM27 °C24 °C84 %1012.5 hPa16.1 kmENE (60°)29.6 km/hMostly Cloudy
7:38 AM27 °C24 °C84 %1012.5 hPa16.1 kmENE (60°)25.9 km/hMostly Cloudy
7:43 AM27 °C24 °C84 %1012.5 hPa16.1 kmENE (60°)25.9 km/hMostly Cloudy
7:48 AM28 °C24 °C79 %1012.5 hPa16.1 kmENE (60°)29.6 km/hMostly Cloudy
7:53 AM28 °C24 °C79 %1012.5 hPa16.1 kmNE (50°)29.6 km/hMostly Cloudy
7:58 AM28 °C24 °C79 %1011.5 hPa16.1 kmNE (50°)27.8 km/hMostly Cloudy
8:13 AM28 °C24 °C79 %1012.5 hPa16.1 kmNE (50°)29.6 km/hMostly Cloudy
8:18 AM28 °C24 °C79 %1012.5 hPa16.1 kmNE (50°)25.9 km/hScattered Clouds
8:23 AM28 °C24 °C79 %1012.5 hPa16.1 kmNE (50°)29.6 km/hMostly Cloudy
8:58 AM27.9 °C24.6 °C82 %1011.9 hPa16.1 kmNE (50°)25.9 km/hMostly Cloudy
9:03 AM28 °C25 °C84 %1012.9 hPa16.1 kmENE (60°)27.8 km/hScattered Clouds
9:33 AM28 °C24 °C79 %1012.9 hPa16.1 kmENE (60°)25.9 km/hMostly Cloudy
9:38 AM28 °C24 °C79 %1012.9 hPa16.1 kmENE (60°)29.6 km/hScattered Clouds
9:58 AM27.7 °C23.9 °C80 %1011.5 hPa16.1 kmNE (50°)25.9 km/hMostly Cloudy
10:08 AM28 °C24 °C79 %1012.5 hPa16.1 kmENE (60°)27.8 km/hOvercast
10:13 AM28 °C24 °C79 %1012.5 hPa16.1 kmENE (60°)27.8 km/hMostly Cloudy
10:18 AM28 °C24 °C79 %1012.5 hPa16.1 kmNE (50°)27.8 km/hMostly Cloudy
10:33 AM29 °C24 °C74 %1012.5 hPa16.1 kmNE (50°)31.5 km/hMostly Cloudy
10:38 AM29 °C24 °C74 %1012.2 hPa16.1 kmENE (60°)27.8 km/hScattered Clouds
10:58 AM29 °C24.6 °C77 %1011.2 hPa16.1 kmNE (50°)27.8 km/hScattered Clouds
11:08 AM29 °C25 °C79 %1011.9 hPa16.1 kmNE (50°)31.5 km/hMostly Cloudy
11:18 AM29 °C24 °C74 %1011.5 hPa16.1 kmNE (50°)25.9 km/hScattered Clouds
11:58 AM29.3 °C24.8 °C77 %1010.2 hPa16.1 kmNE (40°)25.9 km/hScattered Clouds
12:23 PM29 °C25 °C79 %1010.8 hPa16.1 kmNE (40°)29.6 km/hMostly Cloudy
12:33 PM29 °C25 °C79 %1010.8 hPa16.1 kmNE (40°)29.6 km/hMostly Cloudy
12:43 PM29 °C25 °C79 %1010.5 hPa16.1 kmNE (50°)33.3 km/hMostly Cloudy
12:45 PM28 °C25 °C84 %1010.8 hPa14.5 kmNE (50°)31.5 km/hRainLight Rain
12:50 PM28 °C26 °C89 %1010.5 hPa14.5 kmENE (60°)25.9 km/hRainLight Rain
12:55 PM28 °C25 °C84 %1010.5 hPa16.1 kmNE (50°)29.6 km/hRainLight Rain
12:56 PM28 °C25 °C84 %1010.5 hPa16.1 kmENE (60°)27.8 km/hScattered Clouds
12:58 PM28 °C25 °C84 %1009.5 hPa16.1 kmNE (50°)25.9 km/h0 mmScattered Clouds
1:03 PM28 °C25 °C84 %1010.5 hPa16.1 kmENE (60°)29.6 km/hMostly Cloudy
1:08 PM29 °C25 °C79 %1010.5 hPa16.1 kmNE (50°)29.6 km/hMostly Cloudy
1:58 PM29.1 °C25.2 °C79 %1008.8 hPa16.1 kmENE (60°)29.6 km/hPartly Cloudy
2:03 PM28 °C25 °C84 %1009.8 hPa16.1 kmENE (60°)31.5 km/h40.7 km/hRainLight Rain
2:13 PM28 °C25 °C84 %1009.5 hPa16.1 kmNE (50°)25.9 km/hScattered Clouds
2:58 PM28.5 °C24.6 °C79 %1008.8 hPa16.1 kmNE (50°)27.8 km/h0 mmMostly Cloudy
3:08 PM28 °C25 °C84 %1009.8 hPa16.1 kmNE (50°)25.9 km/hMostly Cloudy
3:18 PM28 °C25 °C84 %1009.8 hPa16.1 kmENE (60°)31.5 km/hMostly Cloudy
3:28 PM28 °C25 °C84 %1009.8 hPa16.1 kmNE (50°)29.6 km/hMostly Cloudy
3:43 PM28 °C25 °C84 %1009.8 hPa16.1 kmENE (60°)27.8 km/hMostly Cloudy
3:48 PM28 °C25 °C84 %1009.8 hPa16.1 kmNE (50°)29.6 km/hMostly Cloudy
3:53 PM28 °C25 °C84 %1009.8 hPa16.1 kmENE (60°)27.8 km/hMostly Cloudy
3:58 PM28 °C24.7 °C82 %1008.8 hPa16.1 kmENE (60°)25.9 km/hMostly Cloudy
4:03 PM28 °C25 °C84 %1009.8 hPa16.1 kmNE (50°)29.6 km/hMostly Cloudy
4:08 PM28 °C25 °C84 %1009.8 hPa16.1 kmENE (60°)27.8 km/hMostly Cloudy
4:58 PM27.8 °C24.7 °C83 %1009.5 hPa16.1 kmENE (60°)27.8 km/hScattered Clouds
5:58 PM27.2 °C24.9 °C87 %1009.8 hPa16.1 kmENE (60°)27.8 km/hScattered Clouds
6:33 PM27 °C25 °C89 %1010.8 hPa16.1 kmENE (60°)33.3 km/h42.6 km/hMostly Cloudy
6:34 PM27 °C26 °C94 %1010.8 hPa16.1 kmENE (70°)33.3 km/h42.6 km/hLight Drizzle
6:44 PM26 °C24 °C89 %1010.8 hPa14.5 kmENE (60°)29.6 km/h42.6 km/hLight Drizzle
6:47 PM26 °C24 °C89 %1010.8 hPa16.1 kmENE (60°)25.9 km/hMostly Cloudy
6:58 PM26 °C24 °C89 %1010.2 hPa16.1 kmENE (60°)25.9 km/h0 mmScattered Clouds
7:58 PM26.5 °C25.8 °C96 %1010.5 hPa16.1 kmEast (80°)29.6 km/h42.6 km/hScattered Clouds
8:58 PM26.4 °C24.7 °C90 %1011.2 hPa16.1 kmEast (90°)24.1 km/hMostly Cloudy
9:13 PM26 °C25 °C94 %1012.2 hPa16.1 kmENE (60°)27.8 km/hMostly Cloudy
9:23 PM26 °C25 °C94 %1011.9 hPa16.1 kmENE (70°)18.5 km/hMostly Cloudy
9:38 PM26 °C25 °C94 %1011.9 hPa16.1 kmENE (70°)18.5 km/hMostly Cloudy
9:43 PM26 °C26 °C100 %1011.9 hPa16.1 kmENE (70°)16.7 km/hScattered Clouds
9:58 PM25.9 °C25.1 °C95 %1010.5 hPa16.1 kmENE (70°)20.4 km/hScattered Clouds
10:58 PM26.5 °C25.7 °C95 %1010.5 hPa16.1 kmENE (70°)20.4 km/hScattered Clouds
11:08 PM27 °C25 °C89 %1011.5 hPa16.1 kmENE (70°)22.2 km/hMostly Cloudy
11:13 PM27 °C25 °C89 %1011.5 hPa16.1 kmENE (70°)22.2 km/h33.3 km/hMostly Cloudy
11:18 PM27 °C25 °C89 %1011.5 hPa16.1 kmENE (70°)22.2 km/h33.3 km/hMostly Cloudy
11:23 PM27 °C25 °C89 %1011.2 hPa16.1 kmENE (70°)25.9 km/h33.3 km/hScattered Clouds
11:58 PM26.6 °C25 °C91 %1010.2 hPa16.1 kmENE (70°)25.9 km/hScattered Clouds
Hourly data recorded from PGUA, located 0 kilometers away from Tamuning, Guam







STORIES FROM OUR PARTNERS